Location: Seven Kings
(51.5667°N, 0.1000°E)
Time: 12:06:34
(UTC+00:00)

Cosmos 2278 Rocket - Pass Details

Date: 29 October 2020
Orbit: 840 x 846 km, 71.0° (Epoch: 24 November)

Event Time Altitude Azimuth Distance (km) Brightness Sun altitude
Rises 18:16:10 0° 315° (NW) 3,410 6.0 -15.8°
Reaches altitude 10° 18:21:19 10° 355° (N) 2,476 4.7 -16.6°
Maximum altitude 18:22:20 10° 5° (N) 2,444 4.5 -16.8°
Drops below altitude 10° 18:23:22 10° 16° (NNE) 2,476 4.5 -17.0°
Enters shadow 18:25:08 - 33° (NNE) 2,673 4.5 -17.2°
